Printer-friendly version

IAU Minor Planet Center

Minor Planet Center

MPEC 2006-J20 : 2006 JP

The following Minor Planet Electronic Circular may be linked-to from your own Web pages, but must not otherwise be redistributed electronically.


Read MPEC 2006-J19 Read MPEC 2006-J21


M.P.E.C. 2006-J20                                Issued 2006 May 3, 16:07 UT

     The Minor Planet Electronic Circulars contain information on unusual
         minor planets and routine data on comets.  They are published
   on behalf of Commission 20 of the International Astronomical Union by the
          Minor Planet Center, Smithsonian Astrophysical Observatory,
                          Cambridge, MA 02138, U.S.A.

                  Supported in part by the Brinson Foundation
                  Supported in part by the TABASGO Foundation
             Prepared using the Tamkin Foundation Computer Network

                              MPC@CFA.HARVARD.EDU
          URL http://cfa-www.harvard.edu/iau/mpc.html  ISSN 1523-6714

                                    2006 JP

Observations:
     K06J00P* C2006 05 02.34000 15 30 13.53 -13 42 51.9          20.7 V EJ020G96
     K06J00P  C2006 05 02.34573 15 30 14.47 -13 42 09.1          20.4 V EJ020G96
     K06J00P  C2006 05 02.35112 15 30 15.30 -13 41 28.9          20.7 V EJ020G96
     K06J00P  C2006 05 02.35663 15 30 16.16 -13 40 47.0          20.6 V EJ020G96
     K06J00P  C2006 05 02.36083 15 30 16.81 -13 40 15.9          20.5 V EJ020G96
     K06J00P  C2006 05 02.36125 15 30 16.88 -13 40 12.5          20.7 V EJ020G96
     K06J00P  C2006 05 02.36168 15 30 16.95 -13 40 09.0          21.1 V EJ020G96
     K06J00P  C2006 05 02.36210 15 30 17.02 -13 40 05.7          20.4 V EJ020G96
     K06J00P  C2006 05 02.41045 15 30 24.58 -13 34 00.3          20.7 V EJ020G96
     K06J00P  C2006 05 02.41098 15 30 24.69 -13 33 56.7          20.7 V EJ020G96
     K06J00P  C2006 05 02.41153 15 30 24.76 -13 33 52.6          20.7 V EJ020G96
     K06J00P  C2006 05 02.41207 15 30 24.87 -13 33 48.4          20.2 V EJ020G96
     K06J00P  C2006 05 03.34178 15 33 09.07 -11 36 43.9          20.2 V EJ020G96
     K06J00P  C2006 05 03.34232 15 33 09.14 -11 36 39.9          20.7 V EJ020G96
     K06J00P  C2006 05 03.34285 15 33 09.21 -11 36 35.3          20.4 V EJ020G96
     K06J00P  C2006 05 03.34338 15 33 09.32 -11 36 31.7          20.3 V EJ020G96
     K06J00P tC2006 05 03.41349 15 33 20.11 -11 27 39.5          21.3 V EJ020291
     K06J00P tC2006 05 03.41996 15 33 21.12 -11 26 49.2          21.4 V EJ020291
     K06J00P tC2006 05 03.42405 15 33 21.72 -11 26 19.8          21.3 V EJ020291

Observer details:
291 LPL/Spacewatch II.  Observer J. V. Scotti.  1.8-m f/2.7 reflector + CCD.
G96 Mt. Lemmon Survey.  Observer E. J. Christensen.  Measurers E. C. Beshore,
    E. J. Christensen, G. J. Garradd, A. R. Gibbs, A. D. Grauer, R. E. Hill,
    R. A. Kowalski, S. M. Larson, R. H. McNaught.  1.5-m reflector + CCD.

Orbital elements:
2006 JP                                                  Earth MOID = 0.1521 AU
Epoch 2006 Mar. 6.0 TT = JDT 2453800.5                  MPC
M 331.73864              (2000.0)            P               Q
n   0.44571791     Peri.    7.63408     -0.66199236     +0.71883923
a   1.6973158      Node   221.26911     -0.70354513     -0.69359541
e   0.3175807      Incl.   18.76809     -0.25843832     +0.04685682
P   2.21           H   23.6           G   0.15           U   8
Residuals in seconds of arc
060502 G96  0.3-  0.5+    060502 G96  0.2+  0.1+    060503 G96  0.3-  0.4+
060502 G96  0.3+  0.1+    060502 G96  0.4-  0.4+    060503 G96  0.1+  0.0
060502 G96  0.1+  0.3-    060502 G96  0.0   0.0     060503 291  0.1+  0.2-
060502 G96  0.1+  0.1+    060502 G96  0.3-  0.1-    060503 291  0.2+  0.9+
060502 G96  0.0   0.5-    060502 G96  0.1+  0.0     060503 291  0.2-  0.8-
060502 G96  0.1+  0.3-    060503 G96  0.0   0.1-
060502 G96  0.1+  0.0     060503 G96  0.2-  0.2-

Ephemeris:
2006 JP                  a,e,i = 1.70, 0.32, 19                  q = 1.1583
Date    TT    R. A. (2000) Decl.     Delta      r     Elong.  Phase     V
2006 04 25    15 07.03   -28 01.2    0.167    1.165   159.9    17.3    21.0
2006 04 30    15 23.15   -18 31.9    0.157    1.161   166.3    11.9    20.6
2006 05 05    15 37.85   -08 06.8    0.155    1.159   165.3    12.8    20.6
2006 05 10    15 50.94   +02 05.1    0.159    1.158   157.6    19.4    20.9
2006 05 15    16 02.35   +11 03.6    0.170    1.160   148.9    26.8    21.3
2006 05 20    16 12.14   +18 19.7    0.186    1.163   141.3    33.0    21.7
2006 05 25    16 20.45   +23 53.1    0.206    1.168   135.1    37.7    22.0

Kyle E. Smalley              (C) Copyright 2006 MPC           M.P.E.C. 2006-J20

Read MPEC 2006-J19 Read MPEC 2006-J21


Our Web policy. Index to the CBAT/MPC/ICQ pages.


Valid HTML 4.01!